Location: Alafon
(8.4500°N, 4.2333°E)
Time: 17:41:01
(UTC+00:00)

A-11 Canister half - Pass Details

Date: 13 August 2021
Orbit: 1515 x 1685 km, 47.2° (Epoch: 19 September)

Event Time Altitude Azimuth Distance (km) Brightness Sun altitude
Rises 22:45:58 0° 303° (WNW) 4,925 12.0 -62.5°
Reaches altitude 10° 22:49:27 10° 295° (WNW) 3,942 11.3 -63.0°
Enters shadow 22:49:48 11° 294° (WNW) 3,849 11.3 -63.0°
Maximum altitude 22:58:27 37° 232° (SW) 2,414 - -64.1°
Drops below altitude 10° 23:07:24 10° 168° (SSE) 3,900 - -65.1°
Sets 23:10:53 0° 160° (SSE) 4,868 - -65.4°
